Kilmarnock, Virginia, United States (22482)
Lat: 37.71N, Lon: 76.38W
Wx Zone: VAZ078
Local Info
Past Weather Observations for Yesterday

NOTE: This archive is for the closest National Weather Service station to Kilmarnock. Information may differ from the station used for current weather conditions.

Click here for Long-term Archive

Time Weather Temperature Dewpoint Humidity Pressure Winds Precip Visibility
23:35
Clear
28°F / -2°C 25°F / -4°C 86% 30.33 in
(1027 mb)
Calm - 10SM
23:15
Clear
28°F / -2°C 25°F / -4°C 86% 30.33 in
(1027 mb)
Calm - 10SM
22:55
Clear
28°F / -2°C 25°F / -4°C 86% 30.33 in
(1027 mb)
Calm - 10SM
22:35
Clear
28°F / -2°C 25°F / -4°C 86% 30.33 in
(1027 mb)
Calm - 10SM
22:15
Clear
28°F / -2°C 25°F / -4°C 86% 30.33 in
(1027 mb)
Calm - 10SM
21:55
Clear
28°F / -2°C 25°F / -4°C 86% 30.33 in
(1027 mb)
Calm - 10SM
21:35
Clear
28°F / -2°C 25°F / -4°C 86% 30.33 in
(1027 mb)
Calm - 10SM
21:15
Clear
28°F / -2°C 25°F / -4°C 86% 30.33 in
(1027 mb)
Calm - 10SM
20:55
Clear
30°F / -1°C 25°F / -4°C 80% 30.33 in
(1027 mb)
Calm - 10SM
20:35
Clear
28°F / -2°C 23°F / -5°C 80% 30.33 in
(1027 mb)
Calm - 10SM
20:15
Clear
30°F / -1°C 25°F / -4°C 80% 30.33 in
(1027 mb)
Calm - 10SM
19:55
Clear
30°F / -1°C 25°F / -4°C 80% 30.33 in
(1027 mb)
Calm - 10SM
19:35
Clear
30°F / -1°C 25°F / -4°C 80% 30.33 in
(1027 mb)
Calm - 10SM
19:15
Clear
32°F / 0°C 25°F / -4°C 75% 30.33 in
(1027 mb)
Calm - 10SM
18:55
Clear
32°F / 0°C 25°F / -4°C 75% 30.33 in
(1027 mb)
Calm - 10SM
18:35
Clear
32°F / 0°C 25°F / -4°C 75% 30.33 in
(1027 mb)
Calm - 10SM
18:15
Clear
32°F / 0°C 25°F / -4°C 75% 30.33 in
(1027 mb)
Calm - 10SM
17:55
Clear
36°F / 2°C 25°F / -4°C 65% 30.33 in
(1027 mb)
Calm - 10SM
17:35
Clear
36°F / 2°C 23°F / -5°C 60% 30.3 in
(1026 mb)
Calm - 10SM
17:15
Clear
39°F / 4°C 21°F / -6°C 48% 30.33 in
(1027 mb)
Calm - 10SM
16:55
Clear
41°F / 5°C 19°F / -7°C 42% 30.3 in
(1026 mb)
Calm - 10SM
16:35
Clear
41°F / 5°C 18°F / -8°C 39% 30.3 in
(1026 mb)
Calm - 10SM
16:15
Clear
43°F / 6°C 18°F / -8°C 36% 30.3 in
(1026 mb)
NW 4.6 mph
(NW 7 kph)
- 10SM
15:55
Clear
43°F / 6°C 16°F / -9°C 34% 30.3 in
(1026 mb)
Calm - 10SM
15:35
Clear
43°F / 6°C 14°F / -10°C 31% 30.3 in
(1026 mb)
NNW 6.9 mph
(NNW 11 kph)
- 10SM
15:15
Clear
45°F / 7°C 16°F / -9°C 31% 30.3 in
(1026 mb)
NW 6.9 mph
(NW 11 kph)
- 10SM
14:55
Clear
45°F / 7°C 16°F / -9°C 31% 30.3 in
(1026 mb)
WNW 8.1 mph
(WNW 13 kph)
- 10SM
14:35
Clear
45°F / 7°C 16°F / -9°C 31% 30.3 in
(1026 mb)
NW 6.9 mph
(NW 11 kph)
- 10SM
14:15
Partly Cloudy
45°F / 7°C 16°F / -9°C 31% 30.3 in
(1026 mb)
WNW 10.4 mph
(WNW 17 kph)
- 10SM
13:55
Partly Cloudy
45°F / 7°C 16°F / -9°C 31% 30.3 in
(1026 mb)
WNW 9.2 mph
(WNW 15 kph)
- 10SM
13:35
Clear
45°F / 7°C 16°F / -9°C 31% 30.3 in
(1026 mb)
WNW 10.4 mph
(WNW 17 kph)
- 10SM
13:15
Clear
45°F / 7°C 16°F / -9°C 31% 30.3 in
(1026 mb)
NNW 8.1 mph
(NNW 13 kph)
- 10SM
12:55
Clear
45°F / 7°C 18°F / -8°C 34% 30.3 in
(1026 mb)
NW 9.2 mph
(NW 15 kph)
- 10SM
12:35
Clear
45°F / 7°C 18°F / -8°C 34% 30.3 in
(1026 mb)
NNW 8.1 mph
(NNW 13 kph)
- 10SM
12:15
Clear
43°F / 6°C 19°F / -7°C 39% 30.3 in
(1026 mb)
NW 12.7 mph
(NW 20 kph)
- 10SM
11:55
Clear
43°F / 6°C 19°F / -7°C 39% 30.3 in
(1026 mb)
NNW 10.4 mph
(NNW 17 kph)
- 10SM
11:35
Clear
43°F / 6°C 19°F / -7°C 39% 30.33 in
(1027 mb)
NNW 10.4 mph
(NNW 17 kph)
- 10SM
11:15
Clear
43°F / 6°C 19°F / -7°C 39% 30.33 in
(1027 mb)
NNW 10.4 mph
(NNW 17 kph)
- 10SM
10:55
Clear
43°F / 6°C 21°F / -6°C 42% 30.33 in
(1027 mb)
NW 9.2 mph
(NW 15 kph)
- 10SM
10:35
Clear
41°F / 5°C 21°F / -6°C 45% 30.33 in
(1027 mb)
NW 8.1 mph
(NW 13 kph)
- 10SM
10:15
Clear
41°F / 5°C 23°F / -5°C 49% 30.33 in
(1027 mb)
NW 9.2 mph
(NW 15 kph)
- 10SM
09:55
Clear
41°F / 5°C 23°F / -5°C 49% 30.33 in
(1027 mb)
NW 5.8 mph
(NW 9 kph)
- 10SM
09:35
Clear
39°F / 4°C 25°F / -4°C 56% 30.33 in
(1027 mb)
NW 6.9 mph
(NW 11 kph)
- 10SM
09:15
Clear
37°F / 3°C 23°F / -5°C 56% 30.33 in
(1027 mb)
NW 6.9 mph
(NW 11 kph)
- 10SM
08:55
Clear
37°F / 3°C 23°F / -5°C 56% 30.33 in
(1027 mb)
NW 8.1 mph
(NW 13 kph)
- 10SM
08:35
Clear
37°F / 3°C 23°F / -5°C 56% 30.33 in
(1027 mb)
NW 5.8 mph
(NW 9 kph)
- 10SM
08:15
Clear
36°F / 2°C 23°F / -5°C 60% 30.33 in
(1027 mb)
NW 6.9 mph
(NW 11 kph)
- 10SM
07:55
Clear
36°F / 2°C 23°F / -5°C 60% 30.33 in
(1027 mb)
NW 6.9 mph
(NW 11 kph)
- 10SM
07:35
Clear
34°F / 1°C 23°F / -5°C 65% 30.33 in
(1027 mb)
NW 4.6 mph
(NW 7 kph)
- 10SM
07:15
Clear
34°F / 1°C 23°F / -5°C 65% 30.3 in
(1026 mb)
NNW 3.5 mph
(NNW 6 kph)
- 10SM
06:55
Clear
34°F / 1°C 23°F / -5°C 65% 30.3 in
(1026 mb)
Calm - 10SM
06:35
Clear
34°F / 1°C 23°F / -5°C 65% 30.3 in
(1026 mb)
NW 4.6 mph
(NW 7 kph)
- 10SM
06:15
Clear
34°F / 1°C 25°F / -4°C 70% 30.3 in
(1026 mb)
Calm - 10SM
05:55
Clear
34°F / 1°C 25°F / -4°C 70% 30.27 in
(1025 mb)
NW 3.5 mph
(NW 6 kph)
- 10SM
05:35
Clear
34°F / 1°C 25°F / -4°C 70% 30.27 in
(1025 mb)
Calm - 10SM
05:15
Clear
34°F / 1°C 25°F / -4°C 70% 30.27 in
(1025 mb)
Calm - 10SM
04:55
Clear
34°F / 1°C 25°F / -4°C 70% 30.27 in
(1025 mb)
WNW 4.6 mph
(WNW 7 kph)
- 10SM
04:35
Clear
34°F / 1°C 25°F / -4°C 70% 30.27 in
(1025 mb)
Calm - 10SM
04:15
Clear
34°F / 1°C 27°F / -3°C 75% 30.27 in
(1025 mb)
NW 3.5 mph
(NW 6 kph)
- 10SM
03:55
Clear
34°F / 1°C 27°F / -3°C 75% 30.27 in
(1025 mb)
Calm - 10SM
03:35
Clear
34°F / 1°C 27°F / -3°C 75% 30.24 in
(1024 mb)
Calm - 10SM
03:15
Clear
36°F / 2°C 27°F / -3°C 70% 30.24 in
(1024 mb)
Calm - 10SM
02:55
Clear
36°F / 2°C 27°F / -3°C 70% 30.24 in
(1024 mb)
NW 4.6 mph
(NW 7 kph)
- 10SM
02:35
Partly Cloudy
37°F / 3°C 27°F / -3°C 65% 30.24 in
(1024 mb)
NW 8.1 mph
(NW 13 kph)
- 10SM
02:15
Partly Cloudy
37°F / 3°C 27°F / -3°C 65% 30.24 in
(1024 mb)
NW 4.6 mph
(NW 7 kph)
- 10SM
01:55
Clear
37°F / 3°C 27°F / -3°C 65% 30.21 in
(1023 mb)
NW 6.9 mph
(NW 11 kph)
- 10SM
01:35
Clear
37°F / 3°C 28°F / -2°C 70% 30.21 in
(1023 mb)
NW 5.8 mph
(NW 9 kph)
- 10SM
01:15
Clear
37°F / 3°C 28°F / -2°C 70% 30.21 in
(1023 mb)
WNW 4.6 mph
(WNW 7 kph)
- 10SM
00:55
Clear
37°F / 3°C 30°F / -1°C 75% 30.21 in
(1023 mb)
W 5.8 mph
(W 9 kph)
- 10SM
00:35
Clear
37°F / 3°C 32°F / 0°C 81% 30.21 in
(1023 mb)
WNW 5.8 mph
(WNW 9 kph)
- 10SM
00:15
Clear
37°F / 3°C 30°F / -1°C 75% 30.21 in
(1023 mb)
Calm - 10SM
Time Weather Temperature Dewpoint Humidity Pressure Winds Precip Visibility


Weather for websites

WeatherForYou.com, LLC is not responsible for any damages or problems caused by this service. Current weather conditions are obtained from the closest station including government and personal stations which may have varying degrees of accuracy. Weather forecasts are derived from the NOAA NDFD. Like all things, this site belongs to Jesus Christ... He just trusts me to maintain it. If you have any questions or comments email webmaster@weatherforyou.com

Copyright © 2014, WeatherForYou.com LLC. All rights reserved.